Regional Weather Roundup
Issued by NWS

Home | Current Version | Previous Version | Graphics & Text | Print | Product List | Glossary On
Versions: 1 2 3 4 5 6 7 8 9 10 11 12 13 14 15 16 17 18 19 20 21 22 23 24 25 26 27 28 29 30 31 32 33 34 35 36 37 38 39 40 41 42 43 44 45 46 47 48 49 50
914
ASUS45 KTFX 232310
RWRMT
MONTANA REGIONAL WEATHER ROUNDUP
NATIONAL WEATHER SERVICE GREAT FALLS MT
500 PM MDT MON MAY 23 2016

NOTE: "FAIR" INDICATES FEW OR NO CLOUDS BELOW 12000 FEET WITH NO
SIGNIFICANT WEATHER AND/OR OBSTRUCTIONS TO VISIBILITY.

MTZ001>007-043-240000-
WEST OF THE DIVIDE

CITY           SKY/WX    TMP DP  RH WIND       PRES   REMARKS
KALISPELL      LGT RAIN  48  47  96 S13       29.82R
MISSOULA       LGT RAIN  47  41  80 N7        29.88R
BUTTE          CLOUDY    46  30  53 W12G20    29.88R
MULLAN PASS    SNOW      34  34 100 VRB7      29.85S VSB 1/4 WCI  28
ANACONDA         N/A     45  36  70 W14       29.88R
DEER LODGE       N/A     43  39  87 NE3       29.88S
EUREKA           N/A     52  41  66 SE8       29.81R
HAMILTON         N/A     54  30  40 CALM      29.87R
LIBBY            N/A     50  43  76 NW3       29.84R
PLAINS           N/A     54  41  61 SW5       29.87
$$

MTZ008-052>055-240000-
SOUTHWEST MONTANA

CITY           SKY/WX    TMP DP  RH WIND       PRES   REMARKS
BOZEMAN        CLOUDY    52  31  44 VRB6G24   29.84R
DILLON         CLOUDY    52  31  44 W13       29.83S
ENNIS          PTSUNNY   50  34  53 NW12G25   29.91R
TWIN BRIDGES     N/A     51  31  46 N7        29.86F
$$

MTZ009-010-012-014-046-048-049-054-240000-
EAST SLOPES AND CENTRAL MONTANA

CITY           SKY/WX    TMP DP  RH WIND       PRES   REMARKS
CUT BANK       LGT RAIN  47  41  80 N16       29.78R
GREAT FALLS    LGT RAIN  49  40  71 SW13      29.79R
HELENA         CLOUDY    49  38  65 W10       29.84S
CHOTEAU          N/A     45  43  93 N6        29.80R FOG
CONRAD           N/A     50  47  89 NW12      29.83R
$$

MTZ011-013-016-021-045-047-050-051-240000-
NORTH CENTRAL MONTANA

CITY           SKY/WX    TMP DP  RH WIND       PRES   REMARKS
HAVRE          PTSUNNY   56  43  61 NW18      29.72R
LEWISTOWN      CLOUDY    49  39  68 NW14G23   29.80R
N BAR RANCH      N/A     52  39  62 NW21      29.80R
CHINOOK          N/A     54  43  66 W21G29    29.71R
$$

MTZ017>020-022>027-061-062-240000-
NORTHEAST MONTANA

CITY           SKY/WX    TMP DP  RH WIND       PRES   REMARKS
GLASGOW        MOSUNNY   61  42  49 W18G28    29.67R
JORDAN           N/A     60  42  51 W20       29.72S
SIDNEY         MOSUNNY   69  38  32 W18G29    29.67S
WOLF POINT     MOSUNNY   63  41  44 W20G26    29.68R
PLENTYWOOD       N/A     63  39  42 SW22G29   29.65S
POPLAR           N/A     63  39  42 W25G31    29.68R
SCOBEY           N/A     61  34  36 SW24      29.65R
$$

MTZ028>42-056>058-240000-
SOUTHCENTRAL AND SOUTHEAST MONTANA

CITY           SKY/WX    TMP DP  RH WIND       PRES   REMARKS
BAKER          SUNNY     68  33  27 W14G24    29.73R
BILLINGS       CLOUDY    61  31  32 W23G32    29.77F
LIVINGSTON     CLOUDY    52  35  52 NW12      29.82R
MILES CITY     SUNNY     68  34  28 W18G29    29.73R
EKALAKA          N/A     67  30  25 W9        29.74S
FORSYTH          N/A     64  34  32 W13G20    29.74R
$$

REGIONAL REPORTS...DAKOTAS

CITY           SKY/WX    TMP DP  RH WIND       PRES   REMARKS
WILLISTON      MOSUNNY   70  35  27 W22G33    29.66R
MINOT          CLOUDY    75  30  19 SW7       29.64R
DICKINSON      RAIN      60  35  39 W17G40    29.71R
BEACH            N/A     68  32  26 W21G29    29.73S
CROSBY           N/A     66  36  32 SW23G35   29.65R
WATFORD CITY     N/A     70  36  28 W17G28    29.67R
BISMARCK       MOSUNNY   77  36  22 W10       29.67S
GRAND FORKS    MOSUNNY   81  45  28 SW7       29.65S
FARGO          CLOUDY    81  41  24 SW3       29.65F
BUFFALO SD       N/A     73  33  23 NW14      29.63S
RAPID CITY     SUNNY     73  25  16 W17       29.71R
$$

REGIONAL REPORTS...WYOMING/IDAHO/WASHINGTON

CITY           SKY/WX    TMP DP  RH WIND       PRES   REMARKS
GILLETTE       SUNNY     68  27  21 NW13      29.75R
SHERIDAN       PTSUNNY   66  35  31 N10       29.76R
BUFFALO WY     SUNNY     65  29  25 N9        29.79R
CODY           CLOUDY    57  25  28 W7        29.80S
YELLOWSTONE LA   N/A     40  28  62 VRB5      29.95S
IDAHO FALLS    PTSUNNY   63  29  27 SW15G22   29.86F
SALMON         CLOUDY    59  30  33 W7        29.80F
BOISE          SUNNY     66  32  28 CALM      29.82F
SPOKANE        LGT RAIN  56  42  59 SW13      29.83S
$$

REGIONAL REPORTS...ALBERTA

CITY           SKY/WX    TMP DP  RH WIND       PRES   REMARKS
EDMONTON       CLOUDY    50  41  71 NE6       29.77R
CALGARY        CLOUDY    46  37  71 N16G23    29.77R
LETHBRIDGE     PTSUNNY   48  41  76 W17       29.77R
MEDICINE HAT   CLOUDY    52  45  76 W16       29.69R
$$

REGIONAL REPORTS...SASKATCHEWAN

CITY           SKY/WX    TMP DP  RH WIND       PRES   REMARKS
SWIFT CURRENT  LGT RAIN  48  46  93 W15G21    29.56R
REGINA         CLOUDY    59  41  51 S15G22    29.57S
SASKATOON        N/A     61  39  44 VRB9      29.58R
$$




USA.gov is the U.S. government's official web portal to all federal, state and local government web resources and services.